Location: Sabalos
(43.2860°N, 0.1414°E)
Time: 21:02:38
(UTC+00:00)

Lacrosse 5 rocket - Pass Details

Date: 05 July 2020
Orbit: 465 x 631 km, 57.0° (Epoch: 14 August)

Event Time Altitude Azimuth Distance (km) Brightness Sun altitude
Rises 22:53:52 0° 313° (NW) 2,742 5.9 -22.1°
Reaches altitude 10° 22:57:13 10° 341° (NNW) 1,802 5.1 -22.3°
Maximum altitude 22:59:15 13° 11° (N) 1,569 4.4 -22.4°
Drops below altitude 10° 23:01:15 10° 42° (NE) 1,749 4.3 -22.5°
Sets 23:04:23 0° 70° (ENE) 2,595 4.8 -22.6°
